This demonstration page uses our WeatherBlox Daily Observations layout. Learn more.

Left ArrowRight Arrow

Hourly Observations for August 2, 2020

Temp ( °F °C ) Dew Point ( °F °C ) Humidity (%) Winds ( mph kmh ) Pressure ( in mb ) Visibility ( mi km ) Precip ( " mm )
12:04 am 00:04 Partly Cloudy 73 22.8 71 21.7 94 94 N N/A 29.75 1007 10 16.0934 N/A
12:15 am 00:15 Mostly Cloudy 72 22.2 71 21.7 97 97 N N/A 29.75 1007 10 16.0934 N/A
12:33 am 00:33 Cloudy 73 22.8 71 21.7 94 94 VRB 3 6 29.75 1007 10 16.0934 N/A
12:41 am 00:41 Cloudy 73 22.8 71 21.7 94 94 N N/A 29.75 1007 10 16.0934 N/A
12:53 am 00:53 Cloudy 72 22.2 71 21.7 97 97 VRB 3 6 29.76 1008 10 16.0934 N/A
1:53 am 01:53 Cloudy 73 22.8 70 21.1 90 90 SSW 5 7 29.75 1008 10 16.0934 N/A
2:48 am 02:48 Cloudy 72 22 72 22 100 100 VRB 3 6 29.75 1007 10 16.0934 0.001 0.001
2:53 am 02:53 Cloudy 72 22.2 71 21.7 97 97 VRB 3 6 29.75 1007 10 16.0934 0.001 0.001
3:33 am 03:33 Cloudy 72 22.2 70 21.1 94 94 VRB 7 11 29.74 1007 10 16.0934 0.01 0.254
3:47 am 03:47 Cloudy with Light Rain 72 22 70 21 94 94 SSW 7 11 29.75 1007 2 3.21868 0.06 1.524
3:48 am 03:48 Cloudy with Rain 72 22 70 21 94 94 SSW 8 13 29.75 1007 1.5 2.41401 0.09 2.286
3:53 am 03:53 Cloudy with Rain 71 21.7 70 21.1 96 96 VRB 6 9 29.75 1007 1.25 2.011675 0.1 2.54
3:57 am 03:57 Cloudy with Light Rain 71 21.7 70 21.1 96 96 VRB 7 11 29.75 1008 2 3.21868 0.001 0.001
4:04 am 04:04 Cloudy with Light Rain 71 21.7 70 21.1 96 96 SW 10 17 29.75 1008 9 14.48406 0.001 0.001
4:51 am 04:51 Cloudy 70 21 70 21 100 100 SW 7 11 29.76 1008 10 16.0934 0.001 0.001
4:53 am 04:53 Cloudy 70 21.1 69 20.6 97 97 SW 9 15 29.77 1008 10 16.0934 0.001 0.001
5:53 am 05:53 Cloudy 69 20.6 67 19.4 93 93 VRB 6 9 29.79 1009 10 16.0934 N/A
6:21 am 06:21 Cloudy with Light Rain 68 20 67 19.4 96 96 VRB 6 9 29.81 1009 4 6.43736 0.001 0.001
6:53 am 06:53 Cloudy with Light Rain 68 20 66 18.9 93 93 WSW 9 15 29.82 1010 6 9.65604 0.01 0.254
7:15 am 07:15 Cloudy 67 19.4 65 18.3 93 93 WSW 12 19 29.83 1010 10 16.0934 0.001 0.001
7:53 am 07:53 Cloudy 66 18.9 64 17.8 93 93 W 9 15 29.85 1011 8 12.87472 0.001 0.001
8:01 am 08:01 Cloudy 66 18.9 64 17.8 93 93 W 9 15 29.86 1011 10 16.0934 N/A
8:10 am 08:10 Cloudy 66 18.9 64 17.8 93 93 WSW 8 13 29.86 1011 10 16.0934 N/A
8:53 am 08:53 Cloudy 65 18.3 63 17.2 93 93 WSW 8 13 29.88 1012 10 16.0934 N/A
9:53 am 09:53 Cloudy 66 18.9 64 17.8 93 93 VRB 5 7 29.91 1013 10 16.0934 N/A
10:53 am 10:53 Cloudy 67 19.4 63 17.2 87 87 WSW 7 11 29.93 1014 10 16.0934 N/A
11:29 am 11:29 Cloudy 68 20 63 17.2 84 84 WSW 9 15 29.94 1014 10 16.0934 N/A
11:53 am 11:53 Cloudy 70 21.1 64 17.8 82 82 W 8 13 29.94 1014 10 16.0934 N/A
12:38 pm 12:38 Cloudy 71 21.7 63 17.2 76 76 WNW 10 17 29.93 1014 10 16.0934 N/A
12:53 pm 12:53 Cloudy 72 22.2 63 17.2 73 73 WNW 12 19 29.94 1014 10 16.0934 N/A
1:53 pm 13:53 Cloudy 76 24.4 65 18.3 69 69 WSW 8 13 29.94 1014 10 16.0934 N/A
2:53 pm 14:53 Partly Cloudy 79 26.1 66 18.9 65 65 SW 7 11 29.94 1014 10 16.0934 N/A
3:53 pm 15:53 Mostly Cloudy 78 25.6 65 18.3 64 64 WSW 12 19 29.93 1014 10 16.0934 N/A
4:53 pm 16:53 Partly Cloudy 81 27.2 66 18.9 61 61 VRB 6 9 29.93 1014 10 16.0934 N/A
5:53 pm 17:53 Mostly Sunny 80 26.7 66 18.9 62 62 SW 6 9 29.93 1013 10 16.0934 N/A
6:53 pm 18:53 Mostly Sunny 79 26.1 64 17.8 60 60 VRB 6 9 29.93 1013 10 16.0934 N/A
7:53 pm 19:53 Sunny 77 25 65 18.3 66 66 VRB 3 6 29.94 1014 10 16.0934 N/A
8:53 pm 20:53 Partly Cloudy 71 21.7 65 18.3 81 81 N N/A 29.96 1014 10 16.0934 N/A
9:53 pm 21:53 Mostly Cloudy 70 21.1 66 18.9 87 87 N N/A 29.97 1015 10 16.0934 N/A
10:53 pm 22:53 Clear 69 20.6 65 18.3 87 87 N N/A 29.98 1015 10 16.0934 N/A
11:53 pm 23:53 Clear 67 19.4 64 17.8 91 91 N N/A 29.98 1015 10 16.0934 N/A

Powered by AerisWeather